Tracking 30970 objects as of 3-Jul-2025
HD Live streaming from Space Station
objects crossing your sky now

SL-16 DEB

Track SL-16 DEB now!
10-day predictions


NORAD ID: 39873
Int'l Code: 1993-016AX
Perigee: 701.8 km
Apogee: 826.4 km
Inclination: 70.4 °
Period: 100.0 minutes
Semi major axis: 7135 km
RCS: 0.0103 m2 (small)
Launch date: March 26, 1993
Source: Commonwealth of Independent States (former USSR) (CIS)
Launch site: TYURATAM MISSILE AND SPACE COMPLEX (TTMTR)

Note: This is SATELLITE DEBRIS
Your satellite tracking list
Your tracking list is empty




NASA's NSSDC Master Catalog

Two Line Element Set (TLE):
1 39873U 93016AX  25183.88061432  .00002846  00000-0  87242-3 0  9996
2 39873  70.3917 246.7102 0087306 316.1082  43.3135 14.40461886575048
Source of the keplerian elements: AFSPC